Weather reports worldwide

Advertisment
Bridgefoot, United Kingdom (99137): temperature & dewpoint: 03.04.2020 13:00:00 - 09.04.2020 13:00:00 (BST)Bridgefoot, United Kingdom (99137): precipitation: 03.04.2020 13:00:00 - 09.04.2020 13:00:00 (BST)
Date & Time tt [°C] td [°C] rr [mm]
09.04.2020 13:00:00 - - -
09.04.2020 12:00:00 16,5 7,4 0,0
09.04.2020 11:00:00 15,7 8,5 0,0
09.04.2020 10:00:00 12,4 8,0 0,0
09.04.2020 09:00:00 10,5 8,3 0,0
09.04.2020 08:00:00 5,1 5,0 0,0
09.04.2020 07:00:00 2,2 1,9 0,0
09.04.2020 06:00:00 1,7 1,3 0,0
09.04.2020 05:00:00 2,0 1,5 0,0
09.04.2020 04:00:00 2,3 1,8 0,0
09.04.2020 03:00:00 3,4 2,8 0,0
09.04.2020 02:00:00 3,9 3,2 0,0
09.04.2020 01:00:00 3,7 3,0 0,0
09.04.2020 00:00:00 4,1 3,0 0,0
08.04.2020 23:00:00 5,2 3,4 0,0
08.04.2020 22:00:00 6,4 4,0 0,0
08.04.2020 21:00:00 8,5 4,4 0,0
08.04.2020 20:00:00 10,8 4,4 0,0
08.04.2020 19:00:00 12,3 4,4 0,0
08.04.2020 18:00:00 13,8 4,6 0,0
08.04.2020 17:00:00 14,1 4,1 0,0
08.04.2020 16:00:00 14,7 5,7 0,0
08.04.2020 15:00:00 15,3 5,2 0,0
08.04.2020 14:00:00 15,3 4,1 0,0
08.04.2020 13:00:00 13,6 3,8 0,0
08.04.2020 12:00:00 13,4 4,7 0,0
08.04.2020 11:00:00 13,3 6,1 0,0
08.04.2020 10:00:00 11,9 4,9 0,0
08.04.2020 09:00:00 9,6 5,7 0,0
08.04.2020 08:00:00 7,7 3,7 0,0
08.04.2020 07:00:00 8,4 3,4 0,0
08.04.2020 06:00:00 5,6 3,0 0,0
08.04.2020 05:00:00 6,4 2,9 0,0
08.04.2020 04:00:00 7,3 2,7 0,0
08.04.2020 03:00:00 7,3 2,3 0,0
08.04.2020 02:00:00 7,9 3,1 0,0
08.04.2020 01:00:00 7,3 3,7 0,0
08.04.2020 00:00:00 7,9 3,7 0,0
07.04.2020 23:00:00 6,8 3,3 0,0
07.04.2020 22:00:00 7,4 3,5 0,0
07.04.2020 21:00:00 7,9 2,2 0,0
07.04.2020 20:00:00 10,1 2,4 0,0
07.04.2020 19:00:00 11,7 3,0 0,0
07.04.2020 18:00:00 12,7 3,3 0,0
07.04.2020 17:00:00 12,4 3,0 0,0
07.04.2020 16:00:00 12,9 3,6 0,0
07.04.2020 15:00:00 12,4 1,3 0,0
07.04.2020 14:00:00 12,7 2,6 0,0
07.04.2020 13:00:00 12,7 4,3 0,0
07.04.2020 12:00:00 12,7 6,4 0,0
07.04.2020 11:00:00 11,1 6,0 0,0
07.04.2020 10:00:00 9,7 5,6 0,0
07.04.2020 09:00:00 6,9 6,9 0,0
07.04.2020 08:00:00 3,2 3,1 0,0
07.04.2020 07:00:00 2,4 2,0 0,0
07.04.2020 06:00:00 2,9 2,1 0,0
07.04.2020 05:00:00 4,9 4,3 0,0
07.04.2020 04:00:00 5,6 4,7 0,0
07.04.2020 03:00:00 6,5 5,4 0,0
07.04.2020 02:00:00 6,8 5,9 0,0
07.04.2020 01:00:00 6,7 5,9 0,0
07.04.2020 00:00:00 6,8 5,9 0,0
06.04.2020 23:00:00 7,0 5,6 0,0
06.04.2020 22:00:00 7,3 5,9 0,0
06.04.2020 21:00:00 8,0 5,6 0,0
06.04.2020 20:00:00 8,9 5,0 0,0
06.04.2020 19:00:00 10,0 4,0 0,0
06.04.2020 18:00:00 11,1 4,0 0,0
06.04.2020 17:00:00 11,8 5,2 0,0
06.04.2020 16:00:00 11,8 5,8 0,0
06.04.2020 15:00:00 11,3 5,2 0,0
06.04.2020 14:00:00 11,4 6,2 0,0
06.04.2020 13:00:00 10,9 6,0 0,0
06.04.2020 12:00:00 11,0 6,2 0,0
06.04.2020 11:00:00 10,7 6,1 0,0
06.04.2020 10:00:00 9,9 6,8 0,0
06.04.2020 09:00:00 9,5 7,3 0,0
06.04.2020 08:00:00 9,1 7,7 0,0
06.04.2020 07:00:00 8,8 7,6 0,0
06.04.2020 06:00:00 9,0 7,7 0,0
06.04.2020 05:00:00 9,4 8,0 0,4
06.04.2020 04:00:00 9,9 8,5 0,0
06.04.2020 03:00:00 10,6 9,7 2,8
06.04.2020 02:00:00 12,0 10,5 0,8
06.04.2020 01:00:00 15,0 8,1 0,4
06.04.2020 00:00:00 14,2 8,7 0,4
05.04.2020 23:00:00 16,3 6,9 0,0
05.04.2020 22:00:00 16,8 6,9 0,0
05.04.2020 21:00:00 17,8 6,4 0,0
05.04.2020 20:00:00 18,3 5,8 0,0
05.04.2020 19:00:00 18,0 5,3 0,0
05.04.2020 18:00:00 18,3 5,0 0,0
05.04.2020 17:00:00 19,4 4,6 0,0
05.04.2020 16:00:00 19,2 3,7 0,0
05.04.2020 15:00:00 18,8 2,7 0,0
05.04.2020 14:00:00 18,2 3,0 0,0
05.04.2020 13:00:00 16,9 4,3 0,0
05.04.2020 12:00:00 15,9 3,8 0,0
05.04.2020 11:00:00 15,6 3,2 0,0
05.04.2020 10:00:00 14,6 3,8 0,0
05.04.2020 09:00:00 13,1 3,3 0,0
05.04.2020 08:00:00 11,6 3,3 0,0
05.04.2020 07:00:00 10,4 3,1 0,0
05.04.2020 06:00:00 8,2 2,2 0,0
05.04.2020 05:00:00 9,9 2,4 0,0
05.04.2020 04:00:00 10,3 2,0 0,0
05.04.2020 03:00:00 9,9 2,0 0,0
05.04.2020 02:00:00 10,7 3,5 0,0
05.04.2020 01:00:00 9,8 3,5 0,0
05.04.2020 00:00:00 7,5 4,9 0,0
04.04.2020 23:00:00 8,5 4,7 0,0
04.04.2020 22:00:00 9,7 5,5 0,0
04.04.2020 21:00:00 10,3 5,3 0,0
04.04.2020 20:00:00 9,6 4,7 0,0
04.04.2020 19:00:00 11,1 4,9 0,0
04.04.2020 18:00:00 11,1 4,2 0,0
04.04.2020 17:00:00 11,6 3,6 0,0
04.04.2020 16:00:00 11,2 2,8 0,0
04.04.2020 15:00:00 11,2 2,5 0,0
04.04.2020 14:00:00 10,3 1,6 0,0
04.04.2020 13:00:00 9,7 4,5 0,0
04.04.2020 12:00:00 9,3 4,5 0,0
04.04.2020 11:00:00 8,9 5,7 0,0
04.04.2020 10:00:00 8,5 6,0 0,0
04.04.2020 09:00:00 8,3 6,4 0,0
04.04.2020 08:00:00 7,6 6,3 0,0
04.04.2020 07:00:00 7,5 6,5 0,0
04.04.2020 06:00:00 7,7 6,7 0,0
04.04.2020 05:00:00 7,7 6,9 0,0
04.04.2020 04:00:00 7,4 6,4 0,0
04.04.2020 03:00:00 7,4 6,4 0,0
04.04.2020 02:00:00 7,6 6,6 0,0
04.04.2020 01:00:00 7,7 6,6 0,0
04.04.2020 00:00:00 7,5 6,7 0,0
03.04.2020 23:00:00 7,3 6,0 0,0
03.04.2020 22:00:00 7,5 6,7 0,0
03.04.2020 21:00:00 7,3 6,3 0,0
03.04.2020 20:00:00 7,4 6,7 1,6
03.04.2020 19:00:00 7,0 5,6 1,2
03.04.2020 18:00:00 7,7 5,3 0,0
03.04.2020 17:00:00 8,2 4,8 0,0
03.04.2020 16:00:00 8,5 4,3 0,0
03.04.2020 15:00:00 9,5 4,7 0,0
03.04.2020 14:00:00 8,1 3,9 0,0
03.04.2020 13:00:00 7,6 3,9 0,0

tt = temperature
td = dewpoint
rr = precipitation

Next stations